Starlink 4515

operational
NORAD ID: 53397 Int'l Des: 2022-097 Owner: SPXS Country: US Constellation: starlink
LEOCIRCULAR

About Starlink 4515

Description loading...

Live Position

Loading 3D Globe...

Upcoming Passes

Altitude History

Altitude vs Time

uPlot chart will show altitude changes over time

Two-Line Element Set

1 53397U 22097K 26065.38567006 -.00000104 00000-0 11559-4 0 9992
2 53397 53.2177 138.9544 0001157 89.4694 270.6431 15.08838039198019
Epoch: Mar 6, 2026 • Age: 39 hours

Current Status

Altitude 552.3 km
Velocity 7.59 km/s
Sub-Earth Point -37.02°S, 65.18°E
Launch Date Aug 10, 2022
Age 3.5 years
Type internet

Technical Details

Classification Payload
Mass 297.00 kg
Dry Mass 275.00 kg
Total Mass 297.00 kg
Length 0.20 m
Diameter 2.80 m
Span 9.00 m
Shape Box + pan
Manufacturer SPXS
Bus Type Starlink
Phase Status In Orbit
Owner/State SPXS/US

Large Constellations

Loading constellations...